Retour au catalogue

SL-12 R/B(2)

ActifGEO
NORAD 20394·ROCKET BODY·🇷🇺 Russia

Lancé Dec 27, 1989 depuis Baikonur Cosmodrome

Loading…

TLE

FraisSource: Space-Track

Époque: Sep 14, 2026, 00:02 UTC

1 20394U 89101D   26257.00146976 -.00000213  00000-0  00000-0 0  9999
2 20394  13.1627 336.8867 0011843 241.0113 118.2909  0.98249660120041

Suivez SL-12 R/B(2) en temps réel avec AllMySat

Download on the App Store